{"data":{"norad_id":60603,"epoch":"2026-09-21T20:08:25.334304Z","epoch_age_seconds":73153,"freshness":"FRESH","line1":"1 60603U 24150W   26264.83918211  .00000062  00000+0  12977-4 0  9997","line2":"2 60603  53.1606 111.6128 0001461  92.7533 267.3637 15.34385655118132","mean_motion":15.34385655,"eccentricity":0.0001461,"inclination_deg":53.1606,"raan_deg":111.6128,"arg_perigee_deg":92.7533,"mean_anomaly_deg":267.3637,"bstar":1.2977e-5,"rev_number":11813,"period_min":93.848635465769,"perigee_km":461.74642391403,"apogee_km":463.74532989067,"semimajor_km":6840.8828769024,"source":"CELESTRAK","updated_at":"2026-09-22T09:00:49.276059Z"}}